Location: Artiguedieu
(43.5000°N, 0.5454°E)
Time: 19:52:08
(UTC+00:00)

Transit 2A - Pass Details

Date: 01 August 2021
Orbit: 594 x 964 km, 66.7° (Epoch: 28 September)

Event Time Altitude Azimuth Distance (km) Brightness Sun altitude
Rises 15:37:40 0° 322° (NW) 3,279 9.6 38.5°
Reaches altitude 10° 15:40:06 10° 315° (NW) 2,404 9.1 38.1°
Maximum altitude 15:45:18 41° 246° (WSW) 1,229 9.5 37.2°
Drops below altitude 10° 15:50:56 10° 178° (S) 2,602 8.9 36.2°
Sets 15:53:40 0° 172° (S) 3,578 9.5 35.7°
